Theta_e
348 344 343 340 337 336 334 333 332 332 332 332 333 334 337 337 339 339 339 337 335 334 330 321 315 313 313 314 314 316 316 315 314 312 312 312 312 311 311 310 310 310 309 309 309 310 310 311 316 320 326 328 328 331 331 332 332 332 332 331 331 333 333 333 333 335 335 335 336 337 337 337 337 337 337 336 336 336 335 335 335 335 334 334 335
347 344 342 340 337 335 333 333 331 331 331 331 333 335 338 338 339 339 339 338 335 334 332 326 319 315 313 313 314 315 316 315 314 313 313 312 312 312 311 311 310 309 309 309 309 309 310 311 313 316 322 325 327 330 331 332 332 332 332 330 331 332 332 333 334 335 336 336 336 336 336 337 337 337 337 336 335 336 336 335 335 335 335 334 336
345 341 340 339 338 335 333 332 331 331 330 331 333 336 338 339 340 340 339 337 336 334 333 331 325 318 313 313 314 314 315 314 314 314 313 312 311 312 312 310 310 309 309 309 308 308 309 310 311 313 316 320 324 328 331 332 332 331 330 329 330 331 331 332 333 334 335 336 336 336 336 337 337 337 338 337 336 335 335 335 336 336 335 335 335
345 340 339 338 337 335 332 331 330 329 329 330 333 337 339 340 340 339 339 338 336 334 333 333 329 323 316 312 313 314 313 314 313 313 313 311 312 313 312 311 310 310 310 309 308 308 308 309 311 312 313 317 321 324 328 330 331 330 329 328 328 329 329 330 331 331 333 335 336 336 336 336 336 337 336 335 335 335 334 334 333 333 333 333 333
344 339 338 338 336 334 332 330 329 328 327 330 333 337 339 339 340 339 340 338 336 334 334 333 331 328 321 313 312 313 313 314 313 314 312 311 313 313 311 310 311 310 311 310 311 311 309 308 309 311 312 316 319 320 325 328 330 329 327 327 327 328 328 329 330 330 331 332 334 335 336 336 336 335 332 329 329 329 329 329 328 328 328 329 330
344 338 337 337 335 333 331 329 327 325 326 328 333 336 339 340 340 340 339 338 337 334 333 333 333 332 327 318 313 313 314 313 314 315 313 313 313 314 315 311 311 312 312 312 316 319 315 311 309 309 311 313 317 319 322 325 328 328 326 328 328 329 330 330 331 331 332 332 332 333 333 335 335 334 332 326 323 323 323 323 322 322 322 325 326
344 337 336 336 334 333 330 327 324 323 323 327 333 336 339 340 340 340 339 338 337 334 334 333 333 333 331 325 317 313 314 314 314 315 314 314 311 319 325 315 310 314 314 316 320 324 325 324 316 308 310 311 313 316 319 323 326 327 327 329 330 330 331 331 332 332 332 333 332 332 330 331 334 333 332 329 324 320 318 317 317 316 316 318 321
343 336 336 336 333 332 328 323 322 321 323 328 334 337 339 340 340 340 339 339 337 334 334 334 334 333 332 330 324 317 314 314 314 316 315 313 312 323 330 320 314 316 318 321 322 327 330 328 317 307 310 310 311 313 316 320 324 327 328 330 330 331 332 332 332 332 332 332 332 333 329 325 329 332 329 327 323 317 313 314 313 313 312 311 314
343 338 336 333 332 330 325 322 320 321 324 329 335 337 339 340 340 340 340 339 337 334 334 334 334 333 332 331 328 322 316 314 314 316 316 314 316 323 326 322 321 320 321 322 323 327 327 321 313 308 309 309 310 311 313 317 323 326 325 328 330 330 330 331 332 333 332 331 331 330 327 321 321 324 321 319 316 312 310 311 311 311 310 309 309
342 341 336 330 330 327 323 321 320 322 325 330 335 338 339 340 340 340 340 339 337 334 335 335 334 333 333 330 328 326 320 315 314 315 316 317 321 325 325 325 325 324 324 324 325 326 325 320 313 308 308 309 310 310 311 315 319 321 322 325 329 329 330 330 330 331 330 331 331 328 325 318 315 314 312 312 312 311 311 310 310 309 309 309 308
342 343 338 329 329 326 322 321 321 323 326 331 335 337 339 339 340 340 340 339 336 334 335 335 334 333 330 329 326 325 322 318 314 314 316 319 324 329 330 329 330 330 330 329 329 328 325 321 314 309 308 308 309 310 310 312 317 322 326 330 331 332 333 332 331 330 329 329 330 328 323 316 312 311 310 311 310 311 311 310 309 310 310 309 309
342 344 337 327 328 325 322 321 321 324 327 332 335 337 337 339 340 340 340 338 335 334 335 335 335 332 328 327 324 324 323 318 316 316 316 321 328 332 333 332 332 334 333 332 330 327 323 318 314 311 309 308 309 310 311 314 321 327 331 333 333 333 333 333 332 331 329 327 326 323 318 312 311 310 310 310 310 310 310 309 309 309 309 309 309
342 344 336 326 327 323 320 320 320 322 325 331 334 336 337 337 339 339 340 337 335 334 335 335 333 330 326 326 326 328 325 318 319 321 318 323 331 334 334 333 332 333 333 332 328 325 320 317 315 312 310 308 308 311 314 318 323 329 331 333 333 333 332 333 332 332 331 327 322 319 313 310 310 310 310 310 309 309 309 309 309 309 309 309 309
343 344 333 325 327 322 320 320 319 319 321 327 331 334 336 337 338 338 339 337 335 336 335 334 331 327 328 330 332 335 329 321 322 325 322 325 332 335 336 334 331 332 332 330 327 323 320 318 317 315 312 310 308 310 315 318 322 327 330 331 331 331 331 332 331 331 330 324 318 314 311 310 310 309 310 309 310 309 309 309 309 309 309 309 309
343 342 329 326 327 322 323 322 320 319 319 323 327 331 333 335 337 338 338 337 336 336 336 333 329 329 332 335 338 337 330 325 324 327 328 328 332 336 337 334 332 333 332 328 326 324 322 320 319 317 315 313 310 310 313 317 321 326 328 330 330 331 332 332 332 329 325 319 315 312 310 310 309 309 309 309 310 309 309 309 309 309 309 309 309
343 338 327 327 327 324 324 322 320 319 318 319 321 326 329 332 333 336 337 337 337 336 334 331 331 333 336 338 338 335 330 329 325 326 331 329 331 337 335 332 332 333 331 327 326 325 324 323 322 320 318 315 312 310 312 316 320 326 329 330 330 331 331 330 330 329 326 318 313 312 310 309 310 309 309 309 309 309 309 309 309 309 309 309 308
343 336 326 326 326 327 325 322 322 320 320 319 318 321 324 326 329 331 332 334 336 334 332 331 333 335 336 337 336 333 331 331 326 324 328 327 328 335 333 331 333 332 329 327 327 327 326 325 324 323 321 318 314 312 311 316 321 326 330 331 332 332 333 332 331 332 330 321 311 310 310 309 310 309 310 310 309 309 309 309 309 309 309 308 308
343 336 325 325 327 327 327 325 325 323 324 323 320 320 320 321 324 326 328 332 335 332 331 332 334 335 335 336 334 332 333 333 330 326 326 324 326 331 331 331 333 330 327 327 328 328 328 327 326 325 323 320 316 314 312 315 321 325 329 331 332 332 332 333 333 332 328 319 311 309 309 309 309 310 310 309 309 309 309 309 309 309 309 309 309
342 336 327 325 327 327 328 327 327 328 328 327 325 322 319 319 321 324 327 331 332 331 332 333 333 335 335 335 334 332 332 333 333 330 326 323 323 328 330 330 329 326 325 328 328 328 328 327 327 327 325 322 318 315 314 316 320 324 328 332 332 332 333 333 332 330 323 314 309 308 308 308 308 309 309 308 308 309 309 308 308 309 309 309 309
341 340 334 327 326 327 328 328 328 330 330 330 328 324 321 320 322 326 328 330 331 331 332 333 333 335 335 335 333 331 331 332 332 331 329 325 322 324 326 326 324 322 324 327 329 328 328 328 327 327 326 324 320 316 316 318 320 325 330 333 333 333 333 334 332 329 321 310 306 307 307 308 307 308 308 308 308 308 308 309 308 308 308 308 308
341 342 340 332 328 329 330 329 330 331 331 333 331 325 322 323 325 329 331 331 330 330 331 331 332 333 333 333 332 331 331 332 332 331 331 330 328 325 323 322 320 320 323 326 328 328 328 327 326 326 326 325 321 318 317 319 322 325 328 330 331 331 331 332 330 326 319 309 306 307 306 307 306 307 307 307 307 307 307 307 307 308 308 308 308
342 342 341 337 333 331 331 331 333 334 332 334 333 327 323 324 327 329 332 331 330 331 330 329 330 332 333 331 330 331 333 333 332 332 332 332 332 330 327 323 319 318 321 325 328 328 328 327 326 326 326 326 323 321 319 319 321 324 327 329 330 332 331 331 330 326 319 310 307 308 307 308 308 306 307 306 306 306 306 306 306 306 306 306 307
343 343 341 340 337 335 333 331 335 336 334 336 336 330 324 325 326 326 328 328 328 329 329 330 330 331 332 330 329 331 334 333 333 334 333 332 332 330 329 327 322 318 318 324 328 328 328 327 326 326 327 326 325 324 323 321 322 326 329 329 330 332 331 331 330 328 322 313 308 309 310 311 311 309 307 306 306 306 306 306 305 305 305 305 305
343 343 342 341 339 340 335 331 335 337 336 337 337 333 328 328 328 326 328 326 326 325 327 331 333 332 331 330 330 332 334 334 333 334 333 331 330 329 330 329 325 320 316 321 327 329 328 327 326 326 326 327 327 325 325 324 324 329 332 330 330 331 331 331 330 328 324 316 310 310 312 313 315 314 311 308 307 306 306 306 306 305 305 305 305
344 343 343 342 341 342 338 334 337 339 338 339 338 334 330 330 328 328 330 329 327 326 327 331 333 332 331 330 331 332 333 333 332 333 333 329 329 331 331 329 324 319 316 318 326 328 328 328 326 326 327 329 330 329 327 325 325 329 332 332 332 332 331 331 331 329 324 319 316 316 316 316 318 317 313 310 308 307 307 306 306 305 305 305 305
344 344 343 342 341 340 339 338 339 340 340 339 338 334 330 332 330 330 331 331 331 329 328 330 332 331 329 330 330 331 333 332 331 332 332 329 330 331 330 327 322 318 316 317 323 328 328 329 328 328 330 332 332 331 330 327 325 327 330 332 332 332 332 332 332 328 323 322 323 323 321 321 322 320 315 312 310 308 307 307 306 305 305 305 305
345 344 342 341 340 339 339 340 339 340 340 338 337 335 333 335 334 332 331 331 332 331 329 329 331 331 329 328 328 330 332 331 331 331 331 330 331 331 329 329 325 320 320 320 321 324 327 328 328 329 330 331 332 331 329 327 325 327 330 331 331 332 332 332 332 327 323 324 325 326 326 326 326 322 316 313 310 308 307 306 306 306 306 307 307
344 342 342 340 339 338 338 339 339 339 339 337 337 336 336 336 335 333 332 332 333 333 332 330 331 331 330 327 326 330 332 331 330 329 329 330 331 331 331 332 327 322 324 328 326 321 325 328 327 329 331 331 331 330 329 327 325 328 330 330 332 332 332 332 331 327 324 324 325 328 328 328 326 321 317 314 310 308 307 306 306 306 308 309 311
343 341 341 339 339 339 339 339 338 338 338 336 336 337 337 337 336 335 334 333 333 333 333 332 331 331 330 329 328 329 332 331 330 329 329 330 331 331 332 332 330 327 326 330 331 323 325 330 329 330 331 330 331 331 330 327 326 329 330 330 331 331 332 333 332 329 326 324 324 327 328 327 324 318 315 312 308 307 307 307 308 310 313 315 317
342 342 341 338 339 340 339 339 338 338 337 335 334 335 337 337 336 336 335 334 333 333 332 331 331 331 331 330 329 329 331 331 330 330 330 331 331 331 332 332 332 332 328 328 331 327 326 330 331 331 329 329 331 331 332 329 328 330 329 330 330 331 332 333 333 330 328 327 324 324 325 323 320 315 311 310 308 310 310 310 311 314 317 320 323
342 342 342 339 339 340 339 338 338 337 337 336 334 332 335 337 337 336 336 335 334 333 332 331 332 332 332 331 329 330 331 331 331 330 330 330 330 330 331 331 331 330 328 329 332 330 328 329 332 331 328 329 330 330 332 331 329 330 330 330 330 331 332 332 333 330 329 329 327 324 321 318 315 312 311 311 313 316 316 316 318 319 321 323 325
341 339 341 340 339 339 339 337 336 336 337 338 335 330 332 336 336 336 336 336 335 334 333 333 332 333 333 331 331 331 332 331 331 330 329 329 329 329 330 330 330 327 328 331 332 331 330 331 332 331 329 330 331 330 331 331 330 330 330 330 330 330 331 331 332 331 330 330 329 326 320 316 315 314 314 314 316 319 320 321 324 325 325 325 327
341 337 339 340 339 338 337 336 335 336 338 337 335 331 331 334 335 334 335 335 334 333 333 334 333 333 333 332 333 332 331 331 330 329 329 328 329 329 328 328 329 328 327 329 329 328 329 331 330 330 331 331 331 331 331 331 330 331 330 330 330 330 330 330 330 330 330 330 330 327 322 319 319 318 318 319 321 323 324 325 327 327 327 327 327
340 338 339 340 339 338 337 336 334 336 337 335 333 332 333 334 335 335 335 333 332 332 332 332 332 332 332 332 333 332 332 331 330 329 328 328 328 327 326 326 327 327 326 326 326 327 330 330 330 331 332 331 331 330 331 331 330 330 330 330 330 330 330 330 330 330 329 329 329 329 326 323 322 322 322 323 325 326 326 327 327 327 326 326 326
339 338 340 340 339 339 338 336 333 333 336 334 332 334 334 335 335 336 335 333 331 330 329 330 330 331 331 331 331 331 331 331 330 328 326 326 326 325 325 327 327 327 329 327 325 330 332 331 332 333 333 331 331 331 330 331 330 330 330 330 330 329 329 330 330 330 330 329 329 328 327 326 325 325 325 325 326 326 326 326 326 325 325 324 324
339 338 340 340 340 339 338 336 334 333 336 335 334 334 334 335 336 335 334 333 330 329 329 330 331 331 331 330 330 329 328 328 329 328 326 326 326 327 328 329 328 328 330 328 327 331 333 332 332 333 333 332 331 331 331 330 330 330 330 330 330 329 329 329 330 329 330 329 328 328 327 326 326 326 326 327 326 326 325 325 324 324 323 323 323
338 338 339 340 340 339 337 336 334 334 336 336 336 335 335 335 336 335 334 333 331 330 330 330 330 330 329 328 329 328 326 327 329 328 327 327 328 329 330 329 328 327 328 328 329 332 332 332 331 332 332 332 331 331 330 330 331 330 330 331 331 330 330 329 329 329 329 329 328 327 327 327 327 326 326 326 326 325 324 324 323 323 323 322 322
339 337 339 340 339 338 337 336 335 336 336 337 337 335 335 336 336 336 334 333 332 331 330 330 330 329 328 328 327 326 325 326 327 327 327 328 330 329 329 328 327 326 327 329 330 331 331 330 330 332 332 331 331 331 330 330 330 329 329 331 330 329 330 329 328 329 328 328 327 327 326 326 326 325 326 326 325 325 324 324 324 323 322 321 320
339 338 339 339 339 339 337 337 337 337 337 337 337 336 335 335 336 335 334 333 332 331 331 330 329 329 329 328 328 327 326 326 327 326 326 329 330 329 329 329 327 327 328 329 330 329 329 331 331 332 331 330 331 330 329 330 329 328 329 330 329 328 330 329 328 329 327 326 327 326 325 325 325 325 325 326 325 324 324 325 324 322 320 319 318
339 338 339 338 339 339 338 338 338 337 337 338 338 336 335 335 335 334 333 334 333 332 332 330 329 328 329 329 329 328 327 325 325 326 326 329 329 329 330 329 327 328 329 330 331 328 328 332 332 331 330 329 330 330 329 330 329 328 329 329 328 328 329 328 327 327 326 326 326 326 326 326 327 326 326 326 325 325 326 326 325 324 323 320 320
341 339 338 338 338 338 337 337 338 338 337 337 337 336 335 335 335 334 334 334 332 332 332 331 329 328 329 330 329 327 327 326 326 326 327 328 328 327 329 328 326 327 328 330 331 328 329 331 329 329 330 328 329 330 329 328 327 328 329 329 328 328 328 327 327 327 327 327 326 326 327 327 326 326 326 327 326 326 326 327 326 326 326 324 322
341 339 338 338 338 337 337 337 338 338 338 337 337 335 334 334 334 334 334 333 333 332 331 330 330 329 329 330 328 327 327 326 327 326 326 327 327 327 327 326 326 327 327 328 330 328 329 331 328 327 328 326 327 329 329 327 328 329 329 328 327 328 327 327 327 327 327 327 327 327 327 327 327 327 326 326 326 327 327 327 327 326 325 323 321
342 341 338 338 338 338 338 338 338 339 338 337 336 335 335 334 334 334 334 333 333 332 331 330 329 329 330 329 328 326 326 326 326 326 326 326 326 326 325 323 325 326 327 328 330 330 328 328 328 328 327 325 327 329 328 327 329 329 328 327 327 328 328 328 328 328 327 327 327 327 326 327 328 327 326 325 325 326 327 326 326 325 325 323 320
341 341 340 338 338 338 338 338 338 338 337 337 336 336 335 335 335 335 334 333 332 331 331 330 329 329 330 330 328 326 324 325 325 325 325 324 324 324 323 323 324 325 327 329 330 330 328 326 328 329 329 327 328 328 327 328 329 328 328 328 328 327 328 327 327 328 328 328 328 326 326 328 328 327 325 324 324 325 324 324 324 325 325 324 321
341 341 339 340 339 338 338 338 337 337 336 336 336 336 335 335 335 334 333 331 330 330 330 330 329 329 329 329 329 326 324 324 324 324 324 324 323 322 322 323 324 324 326 329 331 332 330 328 329 329 329 329 328 327 327 329 328 327 328 328 328 328 328 327 327 328 328 329 328 326 327 328 327 325 324 323 324 323 321 320 322 324 324 324 323
342 340 339 340 340 339 337 337 337 337 336 335 335 335 335 334 334 333 332 330 329 329 329 329 328 328 329 328 327 326 325 325 325 324 325 326 324 323 323 324 325 325 327 329 331 332 330 328 328 330 330 329 328 327 326 328 328 327 328 327 327 328 327 327 328 328 328 328 327 327 327 326 324 323 322 322 323 322 319 318 321 323 324 324 322
341 338 337 336 338 339 338 337 337 337 336 335 334 334 334 334 333 333 331 330 329 329 329 329 327 328 328 326 326 326 325 325 325 325 326 327 327 326 326 326 327 328 328 329 330 330 331 330 329 330 330 329 328 327 325 327 328 328 327 327 327 328 327 328 328 327 328 327 327 327 326 325 323 321 321 322 323 322 320 317 319 319 320 320 317
339 336 333 332 336 339 338 337 336 336 336 334 334 333 333 333 333 332 331 330 329 329 329 329 328 328 328 327 327 327 327 327 327 327 328 328 328 328 328 328 328 329 329 329 329 330 331 331 330 330 331 329 328 327 326 327 327 326 327 327 328 328 327 327 327 327 327 327 327 326 325 323 322 321 321 322 322 321 319 319 320 319 318 317 313
338 336 333 332 334 337 338 337 336 336 335 334 334 333 333 333 333 332 332 330 329 330 330 329 329 329 328 328 328 327 328 329 328 328 329 329 328 328 328 328 328 330 330 330 330 330 331 331 330 330 330 330 329 327 327 328 327 326 327 327 327 328 327 327 327 327 326 327 327 326 325 322 320 321 321 321 320 319 319 321 322 321 320 319 314
338 337 335 335 335 336 337 338 337 336 335 334 334 334 333 333 333 333 331 328 329 330 330 330 330 329 327 327 328 328 329 329 329 329 329 330 329 329 329 329 329 329 330 330 330 330 331 331 330 330 330 329 328 326 326 328 327 327 327 326 326 326 327 328 327 327 326 326 327 326 325 322 320 320 320 319 319 318 318 319 320 320 320 319 314
338 338 337 338 338 338 337 337 337 336 334 334 334 335 334 333 332 332 330 328 329 331 330 329 328 326 324 323 323 325 328 329 330 330 330 331 330 330 330 330 329 329 329 331 330 329 331 331 330 330 329 328 327 325 326 327 327 326 327 325 324 325 327 327 326 327 326 326 326 326 324 323 320 318 318 318 317 317 316 316 317 317 317 317 312
Wind_Speed
13 15 15 16 17 18 17 16 16 16 16 17 17 18 18 18 18 16 15 14 14 14 14 13 13 13 14 14 15 16 15 15 15 15 15 15 16 16 16 17 18 18 17 17 17 17 16 16 17 17 16 18 21 21 20 20 20 19 19 19 20 22 22 21 21 21 19 18 18 19 20 20 20 20 19 17 17 18 17 17 17 17 18 17 14
14 18 17 17 17 17 16 16 15 15 16 16 18 18 18 19 18 17 16 15 15 14 14 13 13 13 13 13 14 15 15 15 15 14 15 15 15 16 16 17 18 18 18 17 17 18 17 17 16 15 15 18 21 20 20 21 21 20 20 20 22 23 22 21 21 21 20 18 18 19 21 21 21 21 20 18 17 17 17 18 17 17 18 16 14
11 20 20 18 17 17 16 15 15 15 16 16 18 19 19 19 18 17 16 16 15 15 14 13 12 12 12 12 14 14 14 14 13 13 14 14 15 15 17 18 18 18 18 18 18 18 18 18 17 16 15 17 19 20 21 21 21 21 22 23 24 24 23 22 21 21 19 17 17 19 21 21 21 20 19 18 17 16 16 16 16 17 17 15 14
10 21 20 18 17 16 16 15 15 14 15 16 18 19 20 20 19 18 17 17 16 16 15 13 12 12 12 12 13 13 13 13 12 12 13 13 13 15 17 18 18 18 18 18 18 18 19 18 18 16 15 17 18 20 21 22 22 23 24 26 27 26 24 23 22 22 20 18 16 16 18 19 19 17 16 16 15 15 14 13 13 13 13 13 13
10 22 21 18 18 16 16 14 14 14 15 16 18 19 20 20 19 18 18 18 17 17 16 13 12 11 12 12 12 12 12 12 11 11 11 12 12 15 18 18 18 18 18 18 17 18 18 18 18 17 16 17 18 20 21 23 23 24 26 27 27 26 24 23 22 22 22 20 16 14 13 14 15 15 13 14 13 12 12 11 10 9 8 9 9
12 22 21 19 19 17 15 14 14 14 15 16 18 20 20 20 20 19 18 18 18 17 16 14 12 11 11 12 12 11 11 10 10 9 10 12 13 15 17 17 18 17 17 17 16 16 17 18 17 17 17 17 18 20 21 23 25 27 27 27 26 25 23 21 19 18 19 20 17 14 9 6 11 13 12 11 10 10 9 8 7 6 5 5 5
13 21 20 19 18 17 15 14 14 14 16 17 18 20 20 21 20 20 19 19 18 17 16 14 12 11 11 11 11 10 10 9 8 9 12 13 13 15 15 16 17 17 16 15 14 14 15 15 16 17 18 18 18 20 21 23 26 28 27 27 26 25 23 20 17 14 14 14 14 12 8 2 8 10 9 7 7 7 7 6 6 5 5 5 4
12 20 20 18 18 16 16 14 15 15 16 17 18 20 21 21 20 20 19 19 19 18 17 14 12 11 11 11 11 10 9 9 8 9 13 15 14 15 14 14 16 15 14 13 13 13 13 13 14 17 18 18 19 20 21 23 27 28 26 26 25 24 23 21 19 17 13 10 12 7 3 2 8 8 7 6 6 7 7 7 6 6 6 7 6
11 17 19 18 17 16 16 15 15 15 16 17 18 20 20 21 20 20 19 19 19 18 17 14 13 11 11 11 11 10 9 10 9 9 13 15 13 14 14 14 15 14 14 13 12 12 13 13 14 16 18 19 19 20 21 23 27 27 25 25 24 24 23 21 21 18 12 11 13 9 2 4 8 7 7 7 7 9 11 10 8 9 9 11 10
14 13 15 18 17 16 16 15 15 15 16 17 18 19 20 20 20 20 19 19 18 18 16 14 13 12 11 11 10 9 8 10 10 9 12 15 14 14 14 13 14 15 14 13 12 12 13 13 14 16 18 19 20 21 21 23 26 26 24 24 24 22 21 20 21 17 10 11 11 7 2 4 7 9 10 9 10 11 11 12 12 13 14 14 14
17 13 13 18 16 15 16 15 15 15 15 16 17 19 19 20 19 19 19 18 18 17 16 14 13 12 12 11 10 9 8 9 10 10 11 13 13 13 12 12 14 14 12 11 11 11 12 13 14 16 18 19 20 21 22 24 26 26 25 25 23 22 21 21 23 17 10 10 9 6 0 3 8 11 12 11 11 11 11 14 15 15 15 15 15
17 14 14 18 16 15 15 15 15 14 15 15 17 17 18 19 19 19 19 18 18 17 15 14 13 12 12 11 10 9 8 9 10 10 10 11 12 13 11 11 12 12 11 11 11 12 13 15 16 16 18 18 20 22 23 25 27 27 26 25 23 23 22 22 22 14 8 8 7 4 3 7 12 12 13 13 13 13 14 16 16 15 15 15 16
17 15 15 18 17 16 16 15 15 14 15 15 16 16 17 18 18 19 19 19 18 16 15 14 13 12 12 11 10 9 9 9 10 10 10 12 12 13 10 9 10 12 11 11 12 13 15 16 16 17 17 18 20 22 24 26 26 26 25 24 23 23 22 21 18 11 7 5 4 4 7 11 13 13 13 14 14 15 15 16 15 15 15 15 16
17 14 15 19 17 17 16 15 14 14 14 15 14 14 15 16 16 17 17 18 17 16 14 13 13 12 11 10 9 9 9 8 10 10 11 13 13 13 11 9 10 11 11 12 13 13 15 16 16 17 17 18 18 20 23 23 24 25 25 23 23 23 22 21 13 8 5 3 4 6 9 12 13 14 14 14 15 15 15 15 15 15 14 15 15
16 15 19 19 18 18 16 15 14 14 14 14 14 14 14 14 14 15 16 17 16 15 13 13 13 11 10 9 9 9 9 9 10 10 11 13 14 14 12 12 12 11 11 12 13 14 15 15 15 16 17 17 18 20 20 21 23 25 24 23 22 21 21 21 11 3 2 2 5 7 10 13 13 14 14 15 14 15 15 14 15 14 14 14 15
13 14 22 20 19 20 17 17 15 15 14 13 13 13 14 13 13 14 14 15 14 14 13 13 12 11 10 10 10 8 8 10 10 10 11 12 14 15 12 13 13 11 11 13 14 14 14 14 14 15 16 16 17 18 19 20 23 24 23 22 21 19 19 18 9 3 4 2 5 8 11 14 14 14 14 14 14 14 15 14 14 14 14 14 14
9 13 21 20 19 20 19 18 17 16 15 14 14 13 14 14 14 13 13 14 14 14 13 12 11 12 12 11 10 8 9 10 10 10 11 11 14 14 13 13 13 12 12 13 13 14 14 13 13 14 14 15 15 17 18 19 19 21 23 21 20 20 19 17 9 5 4 4 6 9 12 13 13 13 13 14 14 14 14 14 14 14 14 14 14
8 15 21 21 20 20 20 19 18 18 16 15 14 13 14 14 14 14 13 14 14 14 13 12 13 12 12 11 10 9 10 9 8 9 9 11 13 13 13 12 12 12 12 13 13 13 13 13 12 13 13 13 13 15 17 17 17 20 21 20 20 19 18 13 7 5 4 4 6 9 11 12 12 12 12 13 13 14 14 14 14 13 13 13 13
12 16 20 21 21 20 19 19 19 18 17 16 15 14 13 14 14 14 14 15 15 14 13 13 13 13 12 12 11 10 10 9 8 7 6 9 11 13 13 12 12 12 12 12 13 13 13 13 12 11 11 11 12 14 17 18 19 20 20 20 18 16 16 12 6 5 3 4 6 8 10 11 11 12 12 12 12 12 12 13 12 12 11 11 11
15 14 15 21 22 21 20 19 18 17 17 16 16 15 15 15 15 15 15 15 15 13 13 14 13 12 12 12 11 10 9 9 8 7 6 7 10 12 12 11 12 11 12 13 13 13 13 12 12 11 10 10 10 13 17 19 20 20 20 19 16 16 14 9 6 3 2 5 6 8 9 10 11 11 11 11 11 11 11 11 10 10 10 10 10
19 15 13 18 21 21 21 19 18 17 16 16 16 17 16 16 16 16 15 15 15 14 13 13 13 13 12 12 11 11 10 10 9 8 8 7 8 9 10 10 11 10 11 14 14 13 12 12 12 11 10 10 9 11 15 17 18 17 17 16 17 16 9 4 5 3 2 5 6 8 9 10 10 10 10 10 10 10 9 9 9 9 9 9 9
21 19 15 16 19 21 21 20 19 18 17 16 16 17 17 17 16 16 15 15 14 14 13 12 13 13 13 12 11 12 12 12 11 10 9 8 8 7 8 9 10 10 11 14 15 13 12 12 12 12 11 10 9 9 11 13 14 13 13 14 16 15 5 2 4 5 1 4 5 7 8 9 10 10 9 9 9 9 9 8 8 8 8 8 8
22 22 18 17 17 19 21 21 19 18 18 16 16 17 17 16 16 15 15 14 13 13 12 12 12 13 14 14 13 13 13 13 12 11 10 9 8 7 7 8 9 10 11 13 16 14 13 12 12 12 12 11 9 8 8 9 10 10 11 11 14 12 5 2 4 5 3 2 4 5 7 8 8 9 8 8 8 8 8 7 7 7 7 8 7
23 22 19 19 19 18 20 21 19 18 18 16 16 16 16 16 15 16 15 14 13 13 12 12 12 13 15 16 15 14 14 15 13 11 10 10 9 8 8 8 8 10 11 13 15 15 13 13 12 11 12 11 10 9 7 7 8 9 10 10 12 11 8 2 4 5 4 2 3 3 5 6 7 7 7 7 7 7 7 7 7 7 8 8 8
22 22 20 20 22 21 19 19 18 19 19 18 17 16 15 15 16 15 15 14 14 16 15 14 15 15 17 17 16 15 15 15 14 12 11 10 9 7 7 7 7 9 12 13 14 15 14 13 12 11 12 11 9 8 7 7 6 7 9 10 10 8 9 7 8 5 2 2 3 3 4 5 6 7 7 6 6 6 6 6 7 8 8 9 9
21 22 21 20 22 20 18 18 18 19 19 19 19 17 15 15 15 15 15 15 16 18 18 17 17 17 17 17 16 16 16 16 15 13 11 10 8 6 5 7 7 7 11 14 14 14 14 13 13 12 11 10 8 7 8 8 6 5 9 11 9 8 9 9 10 6 1 4 4 4 4 4 6 6 6 6 6 5 5 6 7 8 9 10 11
21 21 20 18 19 17 16 17 17 15 14 16 17 15 15 16 16 16 15 16 17 17 17 17 17 17 17 17 16 16 17 17 15 14 12 11 9 6 4 5 5 5 9 10 11 14 13 11 12 11 9 8 7 7 7 7 7 7 10 13 10 9 10 9 9 6 4 7 6 6 5 4 5 4 5 6 6 6 6 7 8 9 10 11 12
18 18 17 16 16 15 15 16 14 11 9 10 12 10 14 17 18 17 15 14 15 17 17 16 17 18 17 17 17 16 16 17 17 15 14 12 10 8 6 5 4 5 7 7 6 10 10 8 8 8 7 8 8 6 7 7 8 10 10 13 13 12 10 9 7 4 5 7 6 7 6 5 5 4 4 6 6 7 7 8 9 11 12 13 13
14 13 13 14 15 14 13 13 13 12 9 9 9 9 13 16 17 16 15 13 13 15 15 14 16 17 17 16 17 16 16 18 18 17 15 12 10 9 8 6 5 4 6 10 10 8 10 9 7 7 9 9 9 8 8 8 9 11 10 12 13 12 11 11 9 5 2 5 5 6 5 5 5 5 5 7 7 8 10 10 12 14 15 15 14
14 10 8 11 14 14 14 13 12 12 11 11 10 8 11 14 14 14 15 13 12 14 13 13 15 16 17 16 16 16 17 18 18 17 16 13 12 10 8 8 8 7 7 11 10 7 9 12 10 10 10 9 9 9 8 8 10 11 10 11 10 11 12 12 10 5 1 4 4 5 5 5 5 5 7 9 11 12 12 13 13 15 15 14 14
15 11 7 8 12 15 15 13 10 10 12 14 12 8 11 13 12 13 14 13 12 13 15 15 15 15 17 17 16 17 18 19 19 18 16 13 13 12 10 9 10 12 10 9 10 9 9 12 11 10 9 9 12 11 8 9 12 11 9 10 9 8 11 12 11 5 3 4 4 4 4 5 6 8 11 12 13 13 13 13 13 13 12 12 11
12 10 9 7 12 16 15 13 10 9 11 13 11 8 13 15 13 13 14 14 14 14 15 16 15 16 17 17 16 18 20 20 19 18 17 15 13 13 11 10 10 11 11 11 14 13 11 10 10 11 10 11 14 14 11 12 13 12 11 10 9 7 8 11 10 6 5 5 5 5 5 7 9 11 11 12 12 12 11 11 10 9 9 9 8
11 8 11 9 12 15 15 13 11 10 12 12 9 9 14 16 14 14 15 15 16 15 15 15 15 16 17 19 18 19 20 19 19 19 17 15 14 14 12 11 12 11 12 12 13 12 12 11 11 12 11 10 11 13 14 16 14 13 14 10 9 9 9 11 11 8 6 6 5 5 7 9 10 9 8 8 9 9 9 8 8 7 6 7 6
11 10 11 12 13 14 14 12 11 13 15 12 10 12 14 16 15 14 13 13 14 15 16 15 15 16 18 19 20 21 20 19 19 18 17 16 15 14 12 12 13 12 11 11 11 10 10 10 11 12 11 11 10 12 13 15 13 13 15 10 7 9 9 10 10 8 8 7 6 5 6 7 7 7 6 6 7 7 8 7 6 6 6 6 6
11 12 13 13 13 13 13 12 12 13 15 13 12 12 13 15 16 15 14 13 12 13 15 16 15 16 18 19 20 20 20 20 18 16 17 17 16 14 13 13 13 12 10 10 11 10 9 10 12 12 12 13 10 11 14 15 14 14 14 9 6 7 8 10 10 8 8 8 7 7 6 5 5 5 5 5 6 6 7 6 6 6 6 6 6
11 11 13 13 13 14 12 12 14 13 13 13 12 12 12 13 15 15 15 14 14 15 16 15 16 17 19 20 20 20 19 20 18 16 17 17 15 15 15 14 12 12 10 11 11 11 11 11 12 12 13 12 10 12 15 14 14 15 13 8 6 7 8 10 9 8 9 8 6 7 6 5 4 3 3 4 5 5 6 6 6 6 6 6 6
11 11 12 13 14 13 12 12 13 12 13 14 12 12 11 12 13 14 13 11 13 17 17 15 16 18 20 21 22 22 20 19 19 18 18 17 17 16 15 14 13 13 11 11 11 12 12 11 11 13 13 13 10 12 14 14 14 14 11 9 8 8 8 9 7 6 7 7 6 7 6 5 4 3 3 4 4 4 5 6 5 6 6 7 6
11 12 13 13 13 11 11 11 11 11 13 13 12 11 11 12 13 12 11 10 12 15 15 17 19 20 22 23 23 22 20 21 20 18 17 17 17 14 13 13 13 13 12 12 12 12 12 11 11 12 13 12 10 10 12 14 14 13 10 8 8 8 8 7 6 5 6 7 7 7 6 5 5 4 4 5 5 4 5 4 5 6 7 7 7
13 13 14 13 13 11 11 12 11 12 13 12 11 11 12 11 11 12 10 11 13 13 13 17 19 20 23 24 24 20 19 20 19 17 17 16 15 13 12 13 13 13 12 12 14 13 12 11 11 11 12 12 10 9 11 14 13 11 10 9 8 7 7 6 5 6 8 8 7 8 8 7 7 6 5 5 5 5 4 4 5 7 8 7 7
14 15 15 14 15 14 14 14 13 13 13 13 13 12 12 11 11 12 11 11 11 11 15 16 16 20 23 24 23 20 18 19 18 17 17 15 14 14 13 12 12 12 12 12 13 12 11 12 11 10 12 13 11 10 11 13 12 11 11 10 8 8 8 7 7 9 10 9 9 9 9 9 8 7 6 5 4 5 5 4 5 6 7 7 8
15 17 17 16 16 14 13 14 13 13 13 13 14 13 13 12 11 12 11 11 11 11 14 14 14 20 23 23 22 20 18 18 17 17 16 14 14 14 13 11 10 10 11 12 11 10 10 12 11 10 11 12 13 13 12 12 13 14 13 10 9 10 9 9 9 9 10 10 10 10 9 8 8 6 5 5 5 5 5 4 5 6 7 7 8
17 17 16 16 15 14 12 13 14 15 14 12 12 12 12 11 10 10 10 10 10 10 11 11 14 19 23 23 21 19 18 17 17 16 15 15 14 14 13 10 9 10 11 11 10 10 11 12 11 11 12 12 13 14 13 12 14 15 14 12 12 11 10 10 9 9 9 9 9 9 9 8 8 8 7 7 6 6 5 4 5 6 7 7 8
14 15 15 16 16 15 13 14 16 15 15 14 12 11 11 10 9 10 10 10 9 9 10 11 14 19 20 21 21 19 19 17 16 17 16 15 14 14 13 11 10 11 11 10 10 10 11 12 11 12 14 14 13 14 14 13 14 14 14 14 13 13 12 10 10 9 9 8 7 8 10 10 10 10 9 9 8 5 4 5 5 6 7 8 8
13 14 15 16 17 17 15 15 16 16 16 16 14 12 12 12 11 10 10 9 9 9 11 12 16 19 19 20 20 19 18 17 16 16 15 13 13 12 12 12 11 11 12 10 9 10 10 11 12 13 15 15 13 14 14 13 13 14 14 13 12 13 11 10 11 11 10 9 8 8 9 10 11 12 11 10 7 4 5 7 6 6 7 7 7
16 16 16 17 17 17 17 16 15 15 16 17 16 15 14 14 13 11 10 10 10 12 13 14 16 20 19 19 20 18 17 16 15 14 13 12 11 11 12 12 12 13 13 9 8 8 8 10 13 14 14 14 13 14 14 13 13 15 14 13 12 10 11 14 14 12 11 9 8 10 11 10 12 13 9 9 9 5 5 8 7 7 7 6 5
18 17 15 15 14 14 16 16 15 15 16 18 18 17 15 15 15 13 12 13 13 13 14 15 15 17 16 16 17 16 15 14 13 12 11 10 10 10 11 12 13 14 12 9 8 8 8 9 12 13 13 12 13 15 15 15 16 16 15 14 11 10 14 18 16 13 11 9 9 11 13 13 12 11 8 8 7 5 6 7 7 7 6 5 4
17 15 13 13 13 14 16 17 17 16 16 18 19 18 16 15 14 13 12 13 13 12 12 14 14 14 13 12 12 12 13 13 12 10 9 9 10 10 12 13 13 12 10 10 9 7 8 9 11 12 12 12 14 16 16 17 19 17 15 13 11 12 17 17 15 17 16 12 11 12 12 12 11 11 10 10 8 7 7 6 6 5 3 4 5
16 16 17 16 15 16 17 18 18 17 17 18 19 18 16 15 14 14 13 12 13 13 13 14 13 13 13 12 11 11 11 11 11 10 10 10 9 10 10 11 11 9 9 10 9 8 9 8 10 11 11 12 14 16 16 18 20 18 15 12 10 14 18 16 15 18 19 18 15 13 13 13 13 15 12 9 9 9 9 8 7 5 2 2 4
17 19 21 20 18 19 18 18 18 17 16 17 18 18 17 16 15 15 15 13 13 13 13 13 12 12 11 11 11 11 11 10 10 10 9 8 7 7 8 8 9 9 8 9 9 9 9 8 9 11 11 11 13 14 16 18 19 18 17 14 11 15 18 16 14 15 17 19 16 14 15 14 16 17 12 9 11 11 9 9 9 6 3 1 2
19 21 22 22 21 20 20 19 18 16 14 15 17 18 18 17 16 16 16 16 15 14 13 12 11 10 9 9 10 10 10 9 9 8 7 6 5 5 6 7 8 9 7 9 9 8 9 9 9 10 10 11 12 13 14 17 19 18 18 16 13 15 18 17 15 15 16 17 16 13 13 14 16 15 11 9 11 12 11 11 9 6 6 4 2
20 21 20 20 19 20 21 19 17 14 13 15 18 19 19 19 18 17 18 18 17 16 14 12 10 8 8 9 9 8 7 6 7 7 6 6 5 5 6 6 7 7 7 9 9 8 8 8 8 10 9 9 11 12 13 16 17 18 19 16 13 14 18 18 16 15 15 15 17 14 10 11 13 13 11 10 10 11 12 11 8 7 8 6 2
Wind_Direction
162 160 160 162 153 147 147 142 144 141 144 146 147 148 149 148 145 147 145 142 138 131 126 125 126 132 138 136 135 134 132 130 127 124 121 118 117 117 115 111 106 102 99 96 93 91 89 91 98 99 90 95 106 109 108 106 104 105 104 100 98 95 89 83 79 77 77 81 87 90 90 87 85 84 85 85 84 84 84 83 81 80 78 75 68
160 163 159 162 155 149 146 143 144 141 146 148 150 152 153 151 150 153 150 147 142 136 130 128 128 131 139 139 137 137 137 135 133 130 126 124 123 124 120 113 108 105 102 99 96 93 91 93 97 96 89 94 106 109 108 104 102 102 100 97 95 93 88 82 76 72 74 80 88 91 92 88 86 84 83 83 83 83 82 80 78 78 78 79 75
157 161 158 158 156 150 146 145 144 144 149 150 153 154 156 155 154 157 155 151 147 141 134 133 130 131 139 141 140 140 141 139 138 135 132 129 129 131 123 117 112 109 106 102 98 96 94 92 94 94 91 96 104 107 108 104 100 100 98 96 93 92 87 83 77 70 70 77 83 89 92 91 87 85 84 84 84 84 81 80 80 81 82 82 78
167 161 157 155 154 150 147 146 145 148 151 153 156 157 160 158 158 161 159 154 151 146 138 139 137 135 136 141 143 141 143 142 142 140 138 135 136 135 127 122 115 111 108 105 103 99 95 93 93 95 96 99 102 104 107 106 102 100 99 97 94 91 86 82 76 71 74 76 77 84 91 93 91 88 89 89 87 87 85 83 81 82 84 84 80
167 159 155 154 152 150 146 147 149 152 154 156 159 160 163 161 162 163 162 158 154 151 145 145 143 140 136 141 144 141 143 144 145 146 146 142 142 136 128 124 117 114 111 110 106 99 97 95 95 95 98 101 102 104 105 107 104 102 101 99 94 90 84 77 70 67 69 70 72 73 78 89 95 94 95 93 89 88 87 85 81 81 87 89 83
156 155 154 155 153 150 146 150 152 154 157 159 161 163 166 165 166 166 165 161 158 155 150 150 148 146 139 141 144 144 144 147 151 153 157 149 146 135 126 126 122 119 114 112 105 97 96 94 95 96 98 101 104 105 106 108 107 106 104 100 95 88 82 76 71 66 63 61 58 45 33 77 96 92 91 92 94 94 90 84 79 75 82 92 89
156 153 155 157 153 150 147 151 152 156 158 160 164 166 169 168 168 168 168 163 161 158 155 155 152 150 145 143 144 146 146 151 157 160 161 149 144 134 125 130 129 123 117 112 102 97 96 93 96 98 99 101 105 107 109 109 110 111 107 101 94 87 79 74 72 71 67 59 59 39 2 82 103 94 88 83 86 87 89 83 75 68 60 79 106
157 153 156 157 153 150 148 151 153 157 159 162 166 169 172 171 171 170 170 166 163 161 160 159 157 155 151 147 145 147 153 157 161 165 158 146 142 134 127 134 135 129 121 114 108 103 99 98 99 102 101 101 104 108 111 112 114 114 108 101 97 92 86 81 80 79 76 76 94 95 316 73 93 94 84 71 66 67 81 84 78 71 57 70 96
142 151 158 156 153 149 147 151 154 158 161 165 168 172 173 172 173 172 172 169 165 165 163 163 161 160 155 150 149 152 160 163 163 162 151 144 142 133 129 132 135 131 123 118 115 110 106 105 105 106 104 102 104 107 112 114 118 117 110 107 106 103 98 95 92 84 92 116 128 141 189 64 79 87 80 71 66 64 72 77 76 70 65 66 70
136 151 164 158 153 148 146 150 154 159 163 166 170 172 173 174 175 173 174 170 168 168 165 166 165 163 159 154 154 157 162 164 162 158 152 147 142 132 129 129 128 125 121 118 117 114 112 110 109 111 108 105 104 108 114 116 121 119 111 108 105 101 97 93 87 79 95 131 148 149 83 52 79 84 79 75 70 64 66 72 72 67 64 62 60
142 153 165 157 150 145 144 149 153 158 162 167 171 172 173 174 175 175 175 172 170 171 169 168 168 166 163 160 160 160 161 163 160 159 159 152 142 130 126 127 123 121 122 124 126 123 121 120 119 117 113 110 106 108 114 117 118 114 107 103 99 94 91 86 85 84 94 124 161 179 56 65 88 81 76 75 71 69 68 70 68 64 62 62 62
147 157 163 153 147 144 144 147 152 158 163 169 172 172 174 175 176 176 174 172 173 173 172 171 171 170 166 164 162 160 161 161 157 157 161 153 140 128 127 129 126 129 134 139 142 135 130 128 125 120 117 115 111 110 113 116 115 111 106 102 99 94 91 87 87 89 101 127 159 164 94 89 89 82 78 77 76 74 70 71 69 66 64 63 66
152 169 164 152 146 143 144 147 152 157 163 170 173 172 175 176 176 177 175 174 177 176 174 174 173 172 170 167 164 161 161 161 159 159 158 153 138 129 135 137 137 146 150 152 151 141 134 130 127 122 120 119 116 115 116 119 116 113 108 104 101 97 95 90 92 102 107 122 128 102 93 91 88 86 84 83 81 76 73 74 72 70 66 64 66
160 179 165 153 147 142 144 145 149 155 162 169 172 174 175 175 175 176 176 176 179 179 177 176 173 174 174 170 166 160 156 158 166 166 158 152 138 134 145 152 155 160 158 157 152 143 137 132 129 125 122 121 120 119 121 122 118 114 109 105 102 97 94 91 99 124 117 102 89 96 101 95 92 90 88 86 83 79 77 77 75 72 69 67 67
174 181 164 154 147 143 144 144 147 152 159 166 169 173 172 173 174 174 175 178 180 179 181 178 174 178 176 170 164 159 153 152 168 175 164 156 146 142 158 170 169 167 162 158 152 145 139 135 131 126 124 122 123 124 124 124 118 114 109 106 101 97 96 95 101 103 62 69 86 99 104 99 96 93 91 89 86 83 82 80 77 74 71 70 70
186 177 161 154 149 145 144 145 147 149 153 159 164 169 172 173 173 174 175 177 180 179 181 180 177 178 173 170 167 163 156 152 166 183 179 168 158 155 169 180 174 170 167 158 153 146 140 138 133 128 124 123 126 127 127 125 119 115 110 107 102 97 94 92 93 55 45 82 103 108 105 100 98 95 94 91 88 85 83 81 77 74 74 74 74
187 175 162 154 152 147 146 148 146 147 149 151 158 165 171 176 176 177 177 176 177 178 180 179 177 176 173 171 170 166 160 156 163 183 192 184 175 173 178 181 176 175 170 159 155 150 145 142 135 129 124 124 126 127 130 127 122 119 114 112 107 102 97 98 110 115 111 122 108 106 103 101 100 97 96 92 89 86 82 80 78 77 77 77 77
168 176 167 157 155 151 149 148 145 145 147 148 154 162 168 175 177 177 177 176 176 178 181 179 176 175 176 173 169 165 162 160 162 176 191 192 188 186 185 185 186 183 172 162 161 157 151 146 138 131 124 123 121 122 127 126 123 120 115 111 106 101 97 103 133 165 163 129 93 97 103 101 99 97 95 94 92 90 86 83 83 83 81 79 78
160 176 171 162 158 155 154 149 149 147 147 148 149 155 163 169 173 175 175 175 177 180 179 177 177 173 174 172 167 163 161 163 164 168 182 193 191 189 191 195 200 190 174 169 166 161 157 153 144 135 127 122 119 117 120 123 122 117 111 106 103 99 95 103 146 187 165 105 94 107 110 106 102 98 95 96 97 94 91 88 87 86 83 81 78
168 183 178 170 163 160 160 155 155 152 151 150 147 149 155 163 166 169 171 173 175 176 175 175 174 170 170 172 166 162 166 170 169 171 173 185 189 191 197 202 208 196 178 174 168 165 164 158 149 139 131 123 118 118 120 123 123 118 112 105 104 101 101 128 179 206 127 97 108 115 111 109 105 102 101 102 100 97 95 92 91 88 86 84 80
173 184 185 178 173 169 166 163 163 159 159 155 149 149 152 158 161 165 167 171 172 171 175 175 172 170 172 173 167 167 174 177 176 181 180 185 191 193 200 203 210 204 185 177 170 167 165 162 152 141 134 126 122 122 123 124 122 118 110 105 100 93 96 177 238 283 126 119 119 118 111 108 105 103 103 102 99 97 97 96 94 93 90 87 82
174 181 182 184 185 179 172 170 170 167 166 161 155 151 151 156 158 165 167 170 172 171 174 176 176 175 174 172 172 177 180 181 180 185 190 195 195 201 212 210 209 210 195 179 172 168 166 165 154 143 139 132 130 127 124 123 120 112 107 105 94 89 91 273 295 302 167 130 122 120 113 106 103 101 100 98 97 95 95 95 94 93 89 85 81
179 184 185 187 189 183 177 176 175 171 169 164 160 154 151 155 159 164 167 171 174 173 172 174 178 178 175 175 181 185 184 185 184 181 192 202 203 210 217 215 211 211 202 182 174 171 170 167 155 147 144 141 138 126 125 125 118 108 105 109 103 107 114 12 319 297 289 163 134 116 109 101 98 98 100 100 98 96 94 94 90 86 83 79 77
181 188 193 189 184 183 183 181 176 173 173 167 160 156 153 154 159 163 165 167 168 167 169 173 177 179 181 184 188 191 190 190 186 180 190 202 203 205 209 215 215 206 200 190 181 175 173 170 159 153 150 150 145 136 138 131 123 113 99 100 108 122 133 150 260 282 305 197 142 117 108 93 86 88 95 99 100 98 93 89 83 77 74 73 72
183 187 193 188 184 185 183 181 181 177 176 169 156 154 156 155 161 165 162 160 161 162 170 179 182 186 190 194 192 192 195 192 191 191 193 196 195 200 210 225 223 199 190 192 192 182 176 172 162 159 159 161 158 159 159 146 148 132 112 108 113 135 153 178 228 264 316 144 127 116 123 99 83 79 86 96 99 97 90 83 77 73 73 71 72
188 188 188 184 182 183 177 180 189 184 179 169 151 151 160 158 162 165 163 165 168 169 175 181 187 194 194 197 196 195 201 197 195 196 193 191 190 201 216 229 224 194 185 187 193 192 184 174 166 169 171 172 172 175 174 163 178 171 136 127 128 159 168 183 218 239 135 110 99 91 112 107 83 74 82 92 97 100 94 85 80 77 77 76 77
191 189 185 180 180 181 179 187 196 188 178 162 140 147 165 162 165 169 171 172 174 176 178 183 191 199 198 196 195 197 203 200 196 196 197 194 189 197 205 223 216 182 183 177 188 195 189 179 173 179 185 185 181 180 192 190 195 194 158 141 150 175 175 189 220 223 131 106 94 82 78 75 68 67 86 92 98 107 101 93 89 85 85 82 81
192 193 184 180 188 192 192 194 195 185 175 152 130 152 171 169 173 175 179 175 177 183 183 188 195 202 204 199 196 198 203 200 195 195 203 200 192 188 177 199 220 191 168 153 201 198 177 187 175 176 204 204 199 201 216 215 198 195 174 159 170 180 174 177 198 204 127 103 94 82 64 57 50 43 85 99 103 109 104 99 96 94 91 88 84
191 191 181 183 192 190 195 196 190 185 175 154 145 172 183 183 183 179 186 179 181 196 194 192 194 203 208 202 201 201 202 201 196 195 199 198 191 186 175 183 206 216 168 161 208 208 167 181 174 182 213 212 216 220 222 223 199 192 189 181 178 175 174 165 170 201 146 105 101 87 67 53 39 39 82 102 107 108 104 103 102 98 93 89 84
187 171 160 181 189 181 190 195 191 189 185 172 165 195 201 193 191 187 193 185 186 203 202 194 193 203 209 206 204 201 201 200 196 193 192 193 191 188 185 182 185 207 198 167 191 216 179 178 182 195 206 210 230 231 219 215 193 184 190 197 189 172 173 166 167 200 165 112 110 89 70 48 44 73 96 102 104 103 101 101 98 96 92 87 81
181 167 164 170 176 178 186 193 196 191 193 191 177 203 218 204 199 198 199 189 187 200 202 202 202 204 207 208 202 196 199 195 192 191 188 193 195 194 194 193 196 204 200 169 183 211 190 178 188 194 192 210 232 232 214 204 191 181 189 205 198 166 162 167 168 177 137 121 109 83 72 73 87 100 104 106 106 103 98 94 89 87 85 78 72
157 173 204 181 169 179 187 194 202 194 193 193 172 190 225 214 203 208 208 195 192 200 203 207 210 206 205 207 197 190 195 193 194 194 192 197 200 203 203 204 211 208 198 185 192 200 187 185 193 188 198 218 226 228 210 195 191 185 193 202 193 171 159 162 162 161 144 131 116 89 78 92 105 107 108 109 108 105 97 88 81 78 73 66 61
137 181 212 197 186 185 193 198 192 188 190 195 181 187 216 216 210 213 212 205 202 204 207 207 209 206 204 204 197 190 191 191 195 195 193 197 201 206 205 207 213 210 202 192 192 193 186 192 188 184 208 220 216 225 213 193 188 185 190 188 170 165 160 153 154 159 150 139 138 116 98 102 109 111 110 105 100 98 93 87 85 80 73 70 66
149 188 200 194 196 186 195 200 188 192 197 206 207 194 205 215 214 206 203 208 208 208 208 205 207 206 200 199 197 195 191 189 195 198 196 197 203 207 203 209 213 209 203 192 189 188 184 190 184 184 207 216 209 218 213 196 187 185 190 185 155 153 155 150 149 157 154 151 155 138 121 114 110 110 107 102 97 93 93 91 90 88 80 74 71
153 181 192 192 196 190 198 202 197 204 205 210 212 201 204 211 212 208 201 200 203 213 210 199 203 201 191 190 191 194 193 192 198 203 200 199 202 203 202 209 209 202 200 196 191 184 181 188 190 196 208 214 210 199 198 193 188 188 189 184 158 148 149 150 151 158 159 155 152 143 135 124 111 107 105 105 105 100 95 92 88 84 76 66 61
151 178 194 192 190 194 204 206 202 205 207 207 207 209 210 205 210 210 195 184 188 204 207 197 197 191 184 188 191 195 198 195 196 199 198 195 196 199 202 208 206 202 202 197 187 182 192 197 193 201 211 211 203 193 189 183 184 187 179 167 165 158 142 146 157 163 164 164 159 149 142 136 129 113 109 112 113 110 100 96 90 75 62 54 49
158 181 195 192 187 194 203 208 207 204 210 214 209 211 207 197 205 201 183 178 184 189 197 202 199 193 190 194 197 199 200 194 192 197 198 192 195 203 204 205 205 203 203 197 188 189 201 205 192 198 213 214 206 199 186 173 176 177 164 150 163 170 144 143 161 166 166 172 172 168 161 160 165 141 120 121 116 114 107 96 76 61 55 51 48
168 184 191 187 186 195 196 201 213 211 213 216 211 205 197 194 199 194 183 184 184 183 192 201 198 194 192 194 196 197 197 196 195 198 203 200 197 202 203 203 204 200 200 196 194 202 209 209 201 201 213 216 206 192 177 175 181 177 169 160 168 176 156 150 169 168 164 167 170 174 172 170 168 145 116 116 114 108 107 88 61 61 61 56 50
171 180 186 177 176 188 190 190 202 209 209 209 206 200 197 200 198 192 185 175 175 178 180 189 194 193 191 190 192 193 192 197 198 196 205 208 198 199 202 201 204 201 199 196 198 211 222 220 211 205 211 212 201 190 181 181 184 181 180 177 176 180 174 178 187 171 163 160 161 166 164 158 153 142 124 120 118 110 102 78 71 71 64 61 57
174 180 186 176 173 184 188 186 191 198 202 201 200 200 198 202 202 195 186 169 171 173 164 176 195 193 192 191 188 190 191 192 196 198 205 207 199 202 205 202 205 203 199 200 204 216 227 227 218 206 207 209 205 203 190 181 183 183 181 182 183 181 183 189 181 166 157 150 150 153 152 148 147 148 136 123 117 118 110 88 83 71 58 62 66
178 185 189 178 180 190 190 187 191 195 199 203 203 203 200 200 201 196 189 175 178 181 168 176 194 191 193 194 189 190 192 190 192 198 203 204 204 207 209 210 212 208 201 202 210 220 226 228 220 203 198 206 209 203 189 182 186 183 176 175 175 169 169 170 163 159 154 148 147 144 145 151 150 139 125 122 116 113 107 90 80 67 65 74 74
180 186 190 181 183 196 196 188 191 192 193 203 207 204 204 204 202 194 186 175 180 191 185 184 188 187 191 193 190 189 191 194 194 197 202 206 210 211 213 220 221 215 208 205 209 212 218 221 215 197 191 201 208 202 195 192 187 181 173 165 158 154 155 155 154 155 148 140 140 140 146 147 132 119 114 112 104 100 97 87 86 80 79 83 78
181 185 193 187 183 189 196 192 190 191 191 196 198 193 191 195 199 187 177 176 182 189 185 180 178 179 184 190 191 188 188 194 197 201 205 209 214 213 217 226 224 220 215 213 209 207 215 216 203 194 191 198 203 197 195 192 183 176 168 159 153 149 148 153 157 153 142 137 143 147 148 140 125 116 103 86 80 97 120 114 107 99 90 85 81
197 195 198 191 185 183 190 197 191 187 189 189 186 185 183 184 187 183 180 188 188 179 175 173 173 175 180 186 189 187 187 191 196 203 209 214 219 221 226 228 225 223 220 220 216 211 217 210 197 191 192 197 197 188 186 186 183 174 161 154 156 153 152 159 156 148 145 148 147 138 141 144 129 113 105 109 124 151 147 133 125 115 104 98 95
211 207 199 190 188 182 186 196 190 179 182 184 182 184 185 184 184 179 183 193 186 174 174 173 173 177 179 182 186 189 192 195 201 210 215 219 225 226 227 228 227 225 224 226 219 205 200 196 195 193 192 198 196 185 180 181 181 175 164 156 157 163 164 158 148 144 147 146 141 134 133 133 120 112 124 153 163 169 150 139 137 126 114 113 114
213 208 190 182 187 187 187 189 186 179 179 184 185 186 185 184 186 182 179 187 181 171 174 176 174 174 173 175 182 188 194 201 210 220 222 226 232 229 226 227 227 225 224 224 218 206 190 184 192 192 187 190 194 187 177 177 178 175 172 167 165 173 167 156 148 146 140 134 139 135 125 119 119 124 134 143 139 132 138 141 139 133 127 133 131
213 204 186 185 188 192 191 185 188 187 180 184 186 183 181 179 183 182 177 177 171 161 165 170 168 167 166 170 182 190 196 204 215 223 222 224 230 227 223 223 222 222 224 223 220 215 196 178 184 190 181 178 186 186 177 174 177 176 174 173 172 172 167 162 160 153 142 138 141 133 126 131 141 146 140 142 142 126 119 117 118 121 124 145 144
214 199 190 194 192 196 195 188 195 195 185 187 187 179 176 175 173 172 170 168 163 157 156 160 163 166 169 175 187 196 198 203 216 221 214 215 222 221 217 216 215 217 221 221 217 211 203 184 183 190 184 179 181 185 184 178 177 179 178 174 169 167 167 168 166 160 150 145 141 138 147 152 147 144 147 164 155 119 94 86 94 99 90 134 143
211 196 191 192 191 199 201 194 197 199 190 188 183 174 173 173 168 166 167 165 165 162 155 159 165 162 164 174 183 189 190 195 207 213 209 206 211 214 211 208 207 213 217 213 208 206 203 193 188 188 183 181 181 186 193 187 180 183 182 181 179 172 170 169 167 167 161 151 145 150 162 162 150 147 156 163 136 116 107 116 126 128 135 195 163
199 192 189 187 186 193 201 199 197 196 192 188 178 169 170 172 167 167 169 165 167 167 160 162 167 161 161 169 175 178 179 181 191 203 208 200 198 203 203 200 202 211 211 199 196 201 205 200 188 181 175 177 185 188 192 192 189 188 186 187 189 182 175 171 170 172 168 158 153 159 168 170 167 164 165 154 138 138 141 146 154 150 155 196 202
189 185 183 182 184 191 198 201 196 188 186 184 175 169 169 172 171 168 166 161 163 167 164 162 162 161 161 161 159 158 162 172 186 200 205 196 195 196 192 192 198 208 204 193 192 198 211 209 186 178 177 179 190 191 187 193 195 190 189 189 188 187 183 178 175 177 177 167 157 158 164 173 178 173 160 145 140 141 138 142 152 150 166 206 214